Voltar ao catálogo

COSMOS 1275 DEB

AtivoPO
NORAD 42204·DEBRIS·🇷🇺 Russia

Lançado Jun 4, 1981 de Plesetsk Cosmodrome

Loading…

Próximas Passagens (próximas 24 horas)

TLE

EnvelhecendoSource: Space-Track

Época: Sep 10, 2026, 23:37 UTC

1 42204U 81053TU  26253.98455972  .00000538  00000-0  56456-3 0  9991
2 42204  83.0682 347.4900 0126904 237.9000 120.9785 13.69996705638342

Acompanhe COSMOS 1275 DEB em tempo real com AllMySat

Download on the App Store